[[{"header":{"parameterUnit":"m.s-1","parameterCategory":1,"la1":30.2991,"la2":30.254,"lo1":-89.0895,"lo2":-89.0444,"dy":0.0017,"dx":0.0017,"nx":28,"ny":28,"refTime":"2025-12-30T03:00:00:Z","depth":0,"parameterNumber":2,"parameterNumberName":"U-component_of_WINDS"},"data":[0,0,0,0,0,0,0,0,0,0,0,0,0,0,0,0,0,0,0,0,0,0,0,0,0,0,0,0,0,0,0,0,0,0,0,0,0,0,0,0,0,0,0,0,0,0,0,0,0,0,0,0,0,0,0,0,0,0,1.7808,1.7808,0,1.7796,1.7796,1.7796,1.7779,1.7779,1.7779,1.7779,1.7765,1.7765,1.7765,0,0,0,0,0,0,0,0,0,0,0,0,0,1.7817,1.7817,1.7808,1.7808,1.7808,1.7796,1.7796,1.7796,1.778,1.7779,1.7779,1.7779,1.7765,1.7765,1.7765,0,0,0,0,0,0,0,0,0,0,0,0,0,1.781,1.7817,1.7808,1.7798,1.7797,1.7796,1.7796,1.7796,1.778,1.7779,1.7779,1.7778,1.7765,1.7765,1.7765,1.7772,0,0,1.7765,1.7764,0,0,0,0,0,0,0,0,1.781,1.7809,1.78,1.7799,1.7798,1.7789,1.7794,1.7788,1.778,1.7786,1.7779,1.7778,1.7773,1.7773,1.7771,1.7772,1.7771,1.7765,1.7764,1.7764,1.7764,0,0,0,0,0,0,0,1.7811,1.781,1.7803,1.78,1.7799,1.7795,1.7793,1.7793,1.7782,1.7786,1.7785,1.7783,1.7773,1.7771,1.7771,1.7771,1.7765,1.7764,1.7764,1.7764,1.7777,1.7777,0,0,0,0,0,0,1.7813,1.781,1.7804,1.7803,1.7803,1.7795,1.7793,1.7792,1.7782,1.778,1.7784,1.7783,1.7772,1.7771,1.777,1.7778,1.7764,1.7764,1.7764,1.7776,1.7777,1.7777,0,0,0,0,0,0,1.7813,1.7812,1.7804,1.7806,1.7805,1.7795,1.7794,1.7792,1.7791,1.7781,1.7779,1.7784,1.7771,1.777,1.7772,1.7777,1.7764,1.7764,1.7776,1.7777,1.7777,1.7793,0,0,0,0,0,0,1.7813,1.7813,1.7815,1.7807,1.7805,1.7806,1.7795,1.7792,1.7791,1.7789,1.7781,1.7779,1.7771,1.7772,1.7772,1.7777,1.7764,1.7775,1.7776,1.7777,1.7792,1.7794,1.7796,0,0,0,0,0,1.7814,1.782,1.7815,1.7815,1.7808,1.7807,1.7806,1.7797,1.7791,1.7794,1.7787,1.7779,1.7777,1.7773,1.7772,1.7777,1.7775,1.7776,1.7777,1.7791,1.7794,1.7796,0,0,0,0,0,0,1.7828,1.7818,1.7813,1.7817,1.7813,1.7804,1.7807,1.78,1.7797,1.7796,1.7785,1.7783,1.7786,1.7782,1.7777,1.7783,1.7775,1.7776,1.7786,1.7788,1.779,1.779,1.7764,0,0,0,0,0,1.7832,1.7832,1.7823,1.7828,1.7826,1.7817,1.7816,1.781,1.7805,1.7803,1.7796,1.7792,1.779,1.7789,1.7787,1.7792,1.7789,1.7795,1.7797,1.7799,1.7799,1.7801,1.7803,1.7781,1.7781,1.7781,0,0,1.784,1.7834,1.7835,1.783,1.7826,1.7826,1.7815,1.7816,1.7815,1.7803,1.7804,1.7799,1.7793,1.7797,1.7798,1.7793,1.7805,1.78,1.7801,1.7801,1.7802,1.7804,1.7806,1.7781,1.7781,1.7781,0,0,1.7853,1.785,1.7852,1.7849,1.7844,1.7838,1.7839,1.7831,1.7827,1.7829,1.7819,1.7819,1.7816,1.7812,1.781,1.7824,1.7816,1.7823,1.7833,1.7835,1.7837,1.7839,1.7843,1.7844,1.7824,1.7824,1.7824,0,1.7863,1.7863,1.7855,1.7856,1.7854,1.7843,1.7846,1.7843,1.7837,1.7836,1.7831,1.7828,1.7823,1.7825,1.7829,1.7828,1.7828,1.7823,1.7838,1.7839,1.784,1.7844,1.7846,1.7825,1.7825,1.7825,1.7825,0,1.7875,1.7875,1.7878,1.7873,1.7872,1.7874,1.7866,1.7865,1.786,1.7855,1.7856,1.785,1.7847,1.7847,1.7841,1.7849,1.7846,1.784,1.7831,1.7843,1.7847,1.7848,1.7826,1.7826,1.7826,1.7826,0,0,1.7896,1.7887,1.7888,1.7886,1.788,1.788,1.7881,1.7878,1.7878,1.7875,1.7876,1.7874,1.7869,1.7866,1.786,1.7862,1.7873,1.7856,1.7855,1.7858,1.788,1.7884,1.7886,1.7868,1.7869,1.7869,1.788,0,1.7908,1.791,1.7903,1.7907,1.7907,1.7897,1.7899,1.7895,1.7891,1.789,1.7885,1.7884,1.7877,1.7875,1.7877,1.7871,1.7877,1.787,1.7868,1.7868,1.7869,1.7888,1.7892,1.7902,1.7882,1.7882,1.7882,0,1.7921,1.7919,1.7923,1.7917,1.7916,1.7918,1.7915,1.7914,1.791,1.7907,1.7905,1.7898,1.7899,1.7892,1.7893,1.7889,1.7888,1.7885,1.7885,1.7883,1.7875,1.7885,1.7906,1.7907,1.7884,1.7884,1.7884,0,1.7935,1.7933,1.7935,1.7933,1.7927,1.7928,1.7925,1.7921,1.7919,1.7917,1.7916,1.7914,1.7912,1.7911,1.7904,1.7899,1.7906,1.7898,1.7902,1.7903,1.7903,1.7903,1.7922,1.7904,1.7904,1.7904,1.7904,0,1.7947,1.795,1.7941,1.7942,1.7945,1.7937,1.794,1.7937,1.7933,1.7933,1.7926,1.7926,1.7917,1.7916,1.7911,1.7913,1.7912,1.7909,1.7908,1.7909,1.791,1.7907,1.7906,1.7905,1.7905,1.7905,1.7904,0,1.7963,1.7957,1.7958,1.7952,1.7951,1.7953,1.7948,1.7949,1.7944,1.7945,1.7944,1.7937,1.7936,1.793,1.7927,1.7923,1.7927,1.7924,1.7928,1.7927,1.7931,1.7931,1.7949,1.7951,1.7933,1.7933,1.7933,0,1.797,1.7972,1.7967,1.7966,1.7964,1.7964,1.7963,1.7956,1.7955,1.7951,1.7953,1.7951,1.7949,1.7948,1.7943,1.7941,1.7937,1.7944,1.7937,1.7939,1.7936,1.7936,1.7936,1.7945,1.7945,1.7946,1.7946,0,1.7985,1.7982,1.7981,1.7979,1.7979,1.7977,1.7974,1.7975,1.7967,1.7967,1.7966,1.7965,1.7963,1.7961,1.7958,1.7955,1.7949,1.7948,1.7949,1.795,1.7952,1.795,1.7931,1.7948,1.7947,1.7947,1.7947,1.7947,1.7996,1.7997,1.7993,1.7993,1.7991,1.7989,1.7989,1.7985,1.7985,1.7982,1.7979,1.7978,1.7975,1.7971,1.7968,1.7968,1.7964,1.7965,1.7966,1.7966,1.7966,1.7953,1.7967,1.7967,1.7967,1.7967,1.7967,0,1.8009,1.8007,1.8006,1.8003,1.8003,1.7998,1.7996,1.7996,1.7995,1.7993,1.7992,1.7991,1.799,1.7985,1.7983,1.7983,1.7981,1.7983,1.7982,1.7982,1.797,1.7969,1.7985,1.7985,1.7985,1.7985,1.7985,1.7985,1.8016,1.8018,1.8015,1.8015,1.8013,1.8013,1.8012,1.801,1.8008,1.8007,1.8006,1.8003,1.8,1.7998,1.7997,1.7995,1.7994,1.7998,1.7995,1.7984,1.7982,1.7981,1.798,1.7998,1.7998,1.8007,1.8007,1.8007]},{"header":{"parameterUnit":"m.s-1","parameterCategory":1,"la1":30.2991,"la2":30.254,"lo1":-89.0895,"lo2":-89.0444,"dy":0.0017,"dx":0.0017,"nx":28,"ny":28,"refTime":"2025-12-30T03:00:00:Z","depth":0,"parameterNumber":3,"parameterNumberName":"V-component_of_WINDS"},"data":[0,0,0,0,0,0,0,0,0,0,0,0,0,0,0,0,0,0,0,0,0,0,0,0,0,0,0,0,0,0,0,0,0,0,0,0,0,0,0,0,0,0,0,0,0,0,0,0,0,0,0,0,0,0,0,0,0,0,-5.4025,-5.4027,0,-5.4226,-5.4228,-5.423,-5.4185,-5.4181,-5.4178,-5.4174,-5.4376,-5.4384,-5.4393,0,0,0,0,0,0,0,0,0,0,0,0,0,-5.3598,-5.3607,-5.4025,-5.4028,-5.403,-5.4226,-5.4228,-5.4231,-5.4186,-5.4181,-5.4177,-5.4172,-5.4373,-5.4383,-5.4394,0,0,0,0,0,0,0,0,0,0,0,0,0,-5.379,-5.3609,-5.4025,-5.4031,-5.4034,-5.4225,-5.4228,-5.4232,-5.4187,-5.4181,-5.4176,-5.417,-5.4369,-5.4382,-5.4395,-5.4591,0,0,-5.4436,-5.4442,0,0,0,0,0,0,0,0,-5.3779,-5.3805,-5.4028,-5.4031,-5.4034,-5.4175,-5.4152,-5.4352,-5.4188,-5.4129,-5.4174,-5.4167,-5.4313,-5.4331,-5.4381,-5.4601,-5.4609,-5.4437,-5.4445,-5.4451,-5.4455,0,0,0,0,0,0,0,-5.3766,-5.3797,-5.4104,-5.4031,-5.4035,-5.4023,-5.4044,-5.4189,-5.425,-5.4133,-5.4131,-5.4155,-5.4314,-5.4368,-5.4385,-5.4612,-5.4437,-5.4449,-5.4457,-5.4462,-5.5002,-5.5008,0,0,0,0,0,0,-5.375,-5.3786,-5.4098,-5.411,-5.389,-5.4035,-5.4058,-5.4135,-5.4248,-5.426,-5.416,-5.4152,-5.4348,-5.437,-5.4392,-5.4628,-5.4451,-5.4464,-5.4471,-5.4995,-5.5003,-5.501,0,0,0,0,0,0,-5.3741,-5.3779,-5.409,-5.3948,-5.3986,-5.4049,-5.4135,-5.4142,-5.4196,-5.4269,-5.4279,-5.4204,-5.4344,-5.4373,-5.4542,-5.4635,-5.447,-5.4482,-5.4988,-5.4998,-5.5006,-5.5103,0,0,0,0,0,0,-5.3729,-5.3776,-5.3852,-5.395,-5.3994,-5.4238,-5.4141,-5.415,-5.422,-5.4212,-5.4313,-5.4324,-5.4342,-5.4522,-5.4555,-5.465,-5.4492,-5.498,-5.4992,-5.5003,-5.5092,-5.5114,-5.5134,0,0,0,0,0,-5.3714,-5.387,-5.3856,-5.3894,-5.4091,-5.4244,-5.4269,-5.4288,-5.4228,-5.4304,-5.435,-5.4321,-5.4619,-5.454,-5.4577,-5.4677,-5.4974,-5.4989,-5.5003,-5.5082,-5.511,-5.5133,0,0,0,0,0,0,-5.378,-5.3883,-5.3868,-5.4061,-5.4144,-5.4236,-5.4333,-5.4317,-5.4418,-5.4406,-5.4423,-5.4446,-5.4619,-5.4664,-5.4574,-5.4872,-5.4788,-5.481,-5.4836,-5.4863,-5.4884,-5.4869,-5.4503,0,0,0,0,0,-5.3818,-5.3935,-5.4017,-5.4179,-5.4222,-5.427,-5.4338,-5.4345,-5.4431,-5.4466,-5.4524,-5.4608,-5.472,-5.4794,-5.4901,-5.5098,-5.5118,-5.5185,-5.5206,-5.5223,-5.5242,-5.5348,-5.5378,-5.5057,-5.5057,-5.5056,0,0,-5.3895,-5.3966,-5.4038,-5.4194,-5.426,-5.4379,-5.43,-5.443,-5.4518,-5.4485,-5.4648,-5.4694,-5.4788,-5.4972,-5.5056,-5.5015,-5.5335,-5.5241,-5.5254,-5.5264,-5.5366,-5.5396,-5.5423,-5.5066,-5.5065,-5.5063,0,0,-5.4098,-5.4164,-5.4306,-5.4373,-5.4473,-5.4504,-5.4538,-5.4633,-5.4662,-5.4827,-5.4804,-5.4908,-5.5102,-5.517,-5.523,-5.5458,-5.5434,-5.5492,-5.5603,-5.5706,-5.5732,-5.5754,-5.5835,-5.5864,-5.5511,-5.5511,-5.5511,0,-5.4182,-5.4362,-5.438,-5.4513,-5.4581,-5.4558,-5.4701,-5.4764,-5.4894,-5.4942,-5.4895,-5.5137,-5.5199,-5.5398,-5.5453,-5.5503,-5.5541,-5.5481,-5.5727,-5.575,-5.5771,-5.5848,-5.5879,-5.5518,-5.5517,-5.5516,-5.5516,0,-5.446,-5.4585,-5.4688,-5.4815,-5.4895,-5.5032,-5.5069,-5.5148,-5.5148,-5.5184,-5.5351,-5.5424,-5.5546,-5.5593,-5.5594,-5.5792,-5.5764,-5.5722,-5.5638,-5.5808,-5.5881,-5.591,-5.5527,-5.5524,-5.5522,-5.5521,0,0,-5.4711,-5.4846,-5.4883,-5.494,-5.5049,-5.5145,-5.5281,-5.5401,-5.5468,-5.5558,-5.5671,-5.5835,-5.5797,-5.5865,-5.5873,-5.5964,-5.6139,-5.5911,-5.5913,-5.595,-5.6361,-5.6392,-5.6426,-5.6124,-5.613,-5.6135,-5.6353,0,-5.4923,-5.5163,-5.5183,-5.5398,-5.5514,-5.5493,-5.561,-5.5689,-5.5725,-5.5827,-5.5867,-5.5983,-5.5924,-5.5965,-5.6054,-5.6099,-5.6222,-5.6084,-5.6229,-5.6234,-5.6206,-5.6465,-5.6498,-5.6701,-5.6382,-5.6387,-5.639,0,-5.5203,-5.5303,-5.553,-5.5622,-5.5671,-5.5777,-5.5888,-5.5987,-5.6075,-5.6095,-5.6171,-5.6167,-5.6304,-5.6215,-5.6404,-5.6309,-5.6369,-5.64,-5.6408,-5.6423,-5.6322,-5.6485,-5.6766,-5.6796,-5.6435,-5.6432,-5.6428,0,-5.5363,-5.5554,-5.5714,-5.5764,-5.5875,-5.595,-5.5999,-5.6082,-5.6153,-5.625,-5.6295,-5.6407,-5.6467,-5.6553,-5.6578,-5.6511,-5.6766,-5.6679,-5.6785,-5.6785,-5.684,-5.6836,-5.7134,-5.6879,-5.6879,-5.6878,-5.6877,0,-5.5598,-5.5738,-5.5788,-5.5887,-5.6042,-5.6063,-5.6216,-5.626,-5.6334,-5.644,-5.6428,-5.6527,-5.6554,-5.6658,-5.6678,-5.6831,-5.6859,-5.6878,-5.6882,-5.688,-5.6877,-5.6919,-5.6906,-5.6886,-5.6884,-5.6883,-5.6881,0,-5.5803,-5.5842,-5.6016,-5.6107,-5.6133,-5.6244,-5.6321,-5.6416,-5.645,-5.6584,-5.6617,-5.6671,-5.6793,-5.6826,-5.6971,-5.6985,-5.7165,-5.7155,-5.7136,-5.7136,-5.724,-5.723,-5.7576,-5.7622,-5.7336,-5.7339,-5.7341,0,-5.5951,-5.6059,-5.6161,-5.6232,-5.6285,-5.64,-5.6472,-5.6496,-5.6571,-5.6679,-5.676,-5.6881,-5.6978,-5.7173,-5.7225,-5.7335,-5.7328,-5.7442,-5.7345,-5.7339,-5.733,-5.7323,-5.7334,-5.746,-5.7463,-5.7466,-5.7468,0,-5.6209,-5.6223,-5.6329,-5.6442,-5.6529,-5.6618,-5.6704,-5.6762,-5.6798,-5.6883,-5.7008,-5.7084,-5.7233,-5.7352,-5.7464,-5.7513,-5.7497,-5.7498,-5.7528,-5.7527,-5.7511,-5.7521,-5.7186,-5.749,-5.7488,-5.7486,-5.7485,-5.7484,-5.639,-5.6484,-5.6572,-5.669,-5.6757,-5.6837,-5.693,-5.6977,-5.7082,-5.7206,-5.7213,-5.7348,-5.7432,-5.7581,-5.7637,-5.7742,-5.7708,-5.7752,-5.7763,-5.7774,-5.7783,-5.7495,-5.7762,-5.7762,-5.7761,-5.776,-5.776,0,-5.6647,-5.6702,-5.6811,-5.6932,-5.7024,-5.7001,-5.7095,-5.7173,-5.7293,-5.7374,-5.747,-5.7613,-5.7729,-5.7789,-5.7903,-5.7976,-5.7971,-5.8005,-5.8,-5.8011,-5.7807,-5.7769,-5.8007,-5.8007,-5.8007,-5.8007,-5.8007,-5.8007,-5.6792,-5.695,-5.6974,-5.7165,-5.7219,-5.7353,-5.7408,-5.7481,-5.7546,-5.7707,-5.7803,-5.7842,-5.7914,-5.8033,-5.8137,-5.8152,-5.8194,-5.8233,-5.8243,-5.8051,-5.8026,-5.8002,-5.7966,-5.8242,-5.8242,-5.8439,-5.8441,-5.8442]}]]